Amsterdam, Netherlands

10:20 PM CET on December 08, 2019 (GMT +0100)
Schiphol

Weather History for EHAM - August, 2019

Change the Weather History Date:

Tuesday, August 27, 2019

  Actual Average Record
Temperature  
Mean Temperature 78 °F -  
Max Temperature 90 °F 64 °F 77 °F (2016)
Min Temperature 66 °F 51 °F 45 °F (2014)
Cooling Degree Days 13    
Growing Degree Days 28 (Base 50)    
Moisture  
Dew Point 65 °F    
Average Humidity 65    
Maximum Humidity 94    
Minimum Humidity 31    
Precipitation  
Precipitation 0.01 in - - ()
Sea Level Pressure  
Sea Level Pressure 29.96 in    
Wind  
Wind Speed 5 mph ()    
Max Wind Speed 31 mph    
Max Gust Speed 43 mph    
Visibility 7.8 miles    
Events Thunderstorm    
Averages and records for this station are not official NWS values.
T = Trace of Precipitation, MM = Missing Value Source: Averaged Metar Reports

Daily Weather History Graph

Daily Weather History Graph

Search for Another Location

Airport or City:

Astronomy

Aug. 27, 2019 Rise Set
Actual Time 6:43 AM CEST 8:40 PM CEST
Civil Twilight 6:06 AM CEST 9:16 PM CEST
Nautical Twilight 5:21 AM CEST 10:02 PM CEST
Astronomical Twilight 4:29 AM CEST 10:53 PM CEST
Moon 2:21 AM CEST (8/27) 7:14 PM CEST (8/27)
Length of Visible Light 15h 10m
Length of Day
13h 57m
Waning Crescent, 13% of the Moon is Illuminated
Aug 27
Waning Crescent
Aug 30
New
Sep 6
First Quarter
Sep 14
Full
Sep 22
Last Quarter

Hourly Weather History & Observations

Time (CEST) Temp. Heat Index Dew Point Humidity Pressure Visibility Wind Dir Wind Speed Gust Speed Precip Events Conditions
12:25 AM 73.4 °F - 59.0 °F 61% 30.04 in - NE 9.2 mph - N/A   Clear
12:55 AM 71.6 °F - 59.0 °F 64% 30.01 in - NE 8.1 mph - N/A   Clear
1:00 AM 72 °F - 60 °F 56% 30.02 in 25 mi NE 6.7 mph - -  
1:25 AM 71.6 °F - 60.8 °F 69% 30.01 in - NE 9.2 mph - N/A   Clear
1:55 AM 71.6 °F - 60.8 °F 69% 30.01 in - NE 6.9 mph - N/A   Clear
2:00 AM 72 °F - 61 °F 59% 30.02 in 16 mi NE 6.7 mph - -   Partly Cloudy
2:25 AM 71.6 °F - 60.8 °F 69% 30.01 in - ENE 5.8 mph - N/A   Clear
2:55 AM 71.6 °F - 62.6 °F 73% 30.01 in - NE 5.8 mph - N/A   Clear
3:00 AM 71 °F - 63 °F 69% 30.01 in 9 mi NE 4.5 mph - -   Partly Cloudy
3:25 AM 71.6 °F - 62.6 °F 73% 30.01 in - ENE 6.9 mph - N/A   Clear
4:00 AM 69 °F - 64 °F 78% 30.01 in 8 mi ENE 6.7 mph - -   Partly Cloudy
4:25 AM 69.8 °F - 64.4 °F 83% 30.01 in - NE 8.1 mph - N/A   Clear
4:55 AM 69.8 °F - 64.4 °F 83% 29.98 in - ENE 4.6 mph - N/A   Clear
5:55 AM 68.0 °F - 64.4 °F 88% 29.98 in 5.6 mi ENE 4.6 mph - N/A   Unknown
6:00 AM 67 °F - 63 °F 84% 29.99 in 6 mi ENE 4.5 mph - -   Mist
6:25 AM 68.0 °F - 64.4 °F 88% 29.98 in 4.3 mi ENE 4.6 mph - N/A   Unknown
6:55 AM 66.2 °F - 64.4 °F 94% 29.98 in 4.3 mi ENE 1.2 mph - N/A   Unknown
7:00 AM 67 °F - 65 °F 89% 29.99 in 4 mi East 2.2 mph - -   Mist
7:25 AM 68.0 °F - 64.4 °F 88% 29.98 in 3.7 mi NE 2.3 mph - N/A   Unknown
7:55 AM 69.8 °F - 66.2 °F 88% 29.98 in 3.7 mi NE 3.5 mph - N/A   Unknown
8:25 AM 71.6 °F - 66.2 °F 83% 29.98 in 3.7 mi ENE 3.5 mph - N/A   Unknown
8:55 AM 73.4 °F - 66.2 °F 78% 29.98 in 4.3 mi East 4.6 mph - N/A   Unknown
9:00 AM 74 °F - 67 °F 74% 30.00 in 5 mi East 2.2 mph - -   Mist
9:25 AM 75.2 °F - 66.2 °F 73% 29.98 in 5.0 mi East 3.5 mph - N/A   Unknown
9:55 AM 77.0 °F - 68.0 °F 74% 29.98 in - Variable 2.3 mph - N/A   Clear
10:00 AM 78 °F - 67 °F 62% 30.00 in 6 mi SE 2.2 mph - -   Partly Cloudy
10:25 AM 78.8 °F - 68.0 °F 69% 29.98 in - East 3.5 mph - N/A   Clear
10:55 AM 80.6 °F 83.2 °F 68.0 °F 65% 29.98 in - Variable 2.3 mph - N/A   Clear
11:25 AM 82.4 °F 85.4 °F 68.0 °F 62% 30.01 in - Variable 2.3 mph - N/A   Clear
11:55 AM 82.4 °F 85.4 °F 68.0 °F 62% 30.01 in - Variable 1.2 mph - N/A   Clear
12:00 PM 84 °F - 68 °F 49% 30.01 in 7 mi North 2.2 mph - -   Partly Cloudy
12:25 PM 84.2 °F 87.3 °F 68.0 °F 58% 29.98 in - Variable 2.3 mph - N/A   Clear
12:55 PM 86.0 °F 88.2 °F 66.2 °F 51% 29.98 in - Variable 2.3 mph - N/A   Clear
1:00 PM 87 °F - 67 °F 42% 29.99 in 11 mi East 2.2 mph - -  
1:25 PM 86.0 °F 88.2 °F 66.2 °F 51% 29.98 in - East 3.5 mph - N/A   Clear
1:55 PM 87.8 °F 89.4 °F 64.4 °F 46% 29.95 in - Variable 4.6 mph - N/A   Clear
2:00 PM 88 °F - 65 °F 37% 29.97 in 16 mi SSE 4.5 mph - -   Partly Cloudy
2:25 PM 87.8 °F 90.4 °F 66.2 °F 49% 29.95 in - ESE 4.6 mph - N/A   Clear
2:55 PM 87.8 °F 88.5 °F 62.6 °F 43% 29.95 in - ESE 5.8 mph - N/A   Clear
3:00 PM 89 °F - 63 °F 32% 29.95 in 14 mi East 6.7 mph - -   Partly Cloudy
3:25 PM 87.8 °F 89.4 °F 64.4 °F 46% 29.95 in - ESE 6.9 mph - N/A   Clear
3:55 PM 89.6 °F 91.1 °F 64.4 °F 43% 29.92 in 6.2 mi ESE 5.8 mph - N/A Thunderstorm Partly Cloudy
4:55 PM 89.6 °F 91.1 °F 64.4 °F 43% 29.92 in 6.2 mi ESE 4.6 mph - N/A   Partly Cloudy
5:00 PM 90 °F - 63 °F 31% 29.93 in 16 mi SSE 4.5 mph - -   Partly Cloudy
5:25 PM 89.6 °F 91.1 °F 64.4 °F 43% 29.92 in 6.2 mi SE 6.9 mph - N/A   Partly Cloudy
5:55 PM 87.8 °F 88.5 °F 62.6 °F 43% 29.92 in 6.2 mi ESE 8.1 mph - N/A   Partly Cloudy
6:25 PM 86.0 °F 87.3 °F 64.4 °F 48% 29.92 in - ESE 8.1 mph - N/A   Clear
6:55 PM 86.0 °F 89.4 °F 68.0 °F 55% 29.89 in - East 6.9 mph - N/A   Clear
7:00 PM 85 °F - 68 °F 47% 29.92 in 14 mi East 6.7 mph - -   Partly Cloudy
7:25 PM 84.2 °F 87.3 °F 68.0 °F 58% 29.89 in - East 4.6 mph - N/A   Clear
7:55 PM 84.2 °F 88.4 °F 69.8 °F 62% 29.89 in 6.2 mi East 5.8 mph - N/A Thunderstorm Partly Cloudy
8:00 PM 83 °F - 67 °F 49% 29.91 in 16 mi East 6.7 mph - - Thunderstorm Light Thunderstorm
8:25 PM 77.0 °F - 60.8 °F 57% 29.92 in 6.2 mi SE 31.1 mph 42.6 mph N/A Thunderstorm Thunderstorm
8:55 PM 75.2 °F - 66.2 °F 73% 29.89 in 6.2 mi NE 10.4 mph - N/A Thunderstorm Thunderstorm
9:00 PM 74 °F - 66 °F 70% 29.92 in 7 mi NE 11.2 mph - - Thunderstorm Light Thunderstorm
9:25 PM 73.4 °F - 68.0 °F 83% 29.92 in 6.2 mi NE 10.4 mph - N/A   Partly Cloudy
9:55 PM 73.4 °F - 64.4 °F 73% 29.92 in - NE 9.2 mph - N/A   Clear
10:25 PM 71.6 °F - 64.4 °F 78% 29.92 in - Variable 5.8 mph - N/A   Clear
10:55 PM 68.0 °F - 66.2 °F 94% 29.92 in - East 4.6 mph - N/A   Clear
11:00 PM 69 °F - 65 °F 84% 29.92 in 10 mi East 4.5 mph - -   Partly Cloudy
11:25 PM 68.0 °F - 66.2 °F 94% 29.92 in - East 2.3 mph - N/A   Clear
11:55 PM 69.8 °F - 64.4 °F 83% 29.89 in - Variable 2.3 mph - N/A   Clear